Showing default

ANDURIL-216, 69879

Orbit data source: Space-Track

ANDURIL-216, 69879 is an American payload satellite in SSO that was launched on Tue, 07 Jul 2026 UTC via an FALCON 9 launch vehicle from the Air Force Western Test Range (AFWTR). Payload-class satellites include a variety of spacecraft equipped with specific instruments for various scientific and technological missions. These include communications satellites like Starlink; space stations such as the ISS; scientific satellites like the Hubble; Earth observation satellites from companies like Planet Labs, Umbra, and HawkEye 360; GPS; miniature CubeSats for education and research; and military/defense satellites.

Loading next visibility...
Identifier
69879, 2026-156L
Orbit
SSO
Country
Flag of USUS
Related business
Manufacturer
Apex
Mission
Operational spacecraft
Bus & Motor
ARIES, AOCS
Mass
200 kg wet, 200 kg dry
Launch date (UTC)
2026-07-07 (1 month ago)
Launch vehicle
FALCON 9
Launch site
Air Force Western Test Range (AFWTR)
Object type
Payload
Rocket body
Debris
Shape & HBR
BOX + 2 PAN, 14.5 m
Radar Cross Section
Large (>1 m²)

Expand to show TLE details & history
Last TLE update: 11 hours ago

TLE from 11 hours ago
0 ANDURIL-216
1 69879U 26156L   26227.45384032  .00000747  00000-0  80059-4 0  9991
2 69879  97.7511 127.2554 0006393  31.2847 328.8751 14.91554483  5837
Epoch: 2026-08-15T10:53Z
TLE epoch observation values (Epoch: 2026-08-15T10:53:31.803Z)
Latitude
-0.00003°
Longitude
0.0084°
Altitude
592.314 km
Speed
7.566 km/s
True Right ascension
08h 29m 01s
True Declination
0° 00' 00"
Sunlit
Object was in daylight at epoch
Visualization orbit readout
Latitude
Unknown
Longitude
Unknown
Altitude
Unknown
Speed
Unknown
Apparent Right ascension
Unknown
Apparent Declination
Unknown
Sunlit
N/A
Visualization observer readout
Local Sidereal Time
12:03:37
Azimuth
Unknown
Elevation
Unknown
Doppler factor
Unknown
Orbital elements
Apogee altitude
594.561 km
Perigee altitude
585.652 km
Semi-major axis
6,968.244 km
Eccentricity
0.00064
Inclination
97.7511°
RAAN
127.2554°
Arg. of periapsis
31.2847°
True anomaly
328.83721°
Mean anomaly
328.8751°
Eccentric anomaly
328.85616°
Mean motion
3.73128 °/min
Orbital period
96.48 mins
BSTAR
0.000080059
Loading maneuver chart data...
Computing Atmospheric mass density...
Loading historical data...
Loading historical data...
Loading historical data...
Loading historical data...
Loading historical data...
Loading historical data...
Loading historical data...

Documentation

Showing up to 5 results
|